Manistee, MI

6:57 PM EDT on April 28, 2017 (GMT -0400)
Manistee County-Blacker

Weather History for KMBL - April, 2014

Change the Weather History Date:

Monday, April 28, 2014

  Actual Average Record
Temperature  
Mean Temperature 50 °F -  
Max Temperature 55 °F 60 °F 83 °F (1986)
Min Temperature 44 °F 39 °F 20 °F (1992)
Degree Days  
Heating Degree Days 16    
Moisture  
Dew Point 26 °F    
Average Humidity 40    
Maximum Humidity 46    
Minimum Humidity 33    
Precipitation  
Precipitation 0.00 in - - ()
Sea Level Pressure  
Sea Level Pressure 29.89 in    
Wind  
Wind Speed 21 mph (ESE)    
Max Wind Speed 30 mph    
Max Gust Speed 40 mph    
Visibility 10 miles    
Events      
Averages and records for this station are not official NWS values.
T = Trace of Precipitation, MM = Missing Value Source: NWS Daily Summary

Daily Weather History Graph

Daily Weather History Graph

Search for Another Location

Airport or City:

Trip Planner

Search our weather history database for the weather conditions in past years. The results will help you decide how hot, cold, wet, or windy it might be!

Date:

Astronomy

Apr. 28, 2014 Rise Set
Actual Time 6:40 AM EDT 8:45 PM EDT
Civil Twilight 6:08 AM EDT 9:16 PM EDT
Nautical Twilight 5:30 AM EDT 9:55 PM EDT
Astronomical Twilight 4:47 AM EDT 10:38 PM EDT
Moon 6:20 AM EDT 8:21 PM EDT
Length of Visible Light 15h 08m
Length of Day
14h 04m
Waning Crescent, 0% of the Moon is Illuminated
Apr 28
Waning Crescent
Apr 29
New
May 6
First Quarter
May 14
Full
May 21
Last Quarter

Hourly Weather History & Observations

Time (EDT) Temp. Windchill Dew Point Humidity Pressure Visibility Wind Dir Wind Speed Gust Speed Precip Events Conditions
12:15 AM 44.6 °F 36.1 °F 24.8 °F 46% 30.01 in 10.0 mi ESE 21.9 mph 31.1 mph N/A   Partly Cloudy
12:35 AM 44.6 °F 36.6 °F 24.8 °F 46% 30.01 in 10.0 mi ESE 19.6 mph 29.9 mph N/A   Partly Cloudy
12:55 AM 44.6 °F 36.9 °F 24.8 °F 46% 30.00 in 10.0 mi East 18.4 mph 27.6 mph N/A   Clear
1:15 AM 44.6 °F 36.6 °F 24.8 °F 46% 29.99 in 10.0 mi East 19.6 mph 27.6 mph N/A   Clear
1:35 AM 44.6 °F 36.6 °F 24.8 °F 46% 29.99 in 10.0 mi ESE 19.6 mph 24.2 mph N/A   Scattered Clouds
1:55 AM 44.6 °F 36.6 °F 24.8 °F 46% 29.99 in 10.0 mi ESE 19.6 mph 28.8 mph N/A   Partly Cloudy
2:15 AM 44.6 °F 38.4 °F 24.8 °F 46% 30.02 in 10.0 mi ESE 12.7 mph 23.0 mph N/A   Clear
2:35 AM 44.6 °F 37.4 °F 24.8 °F 46% 30.01 in 10.0 mi ESE 16.1 mph 24.2 mph N/A   Mostly Cloudy
2:55 AM 44.6 °F 37.8 °F 24.8 °F 46% 30.01 in 10.0 mi ESE 15.0 mph 21.9 mph N/A   Scattered Clouds
3:15 AM 44.6 °F 36.9 °F 24.8 °F 46% 30.01 in 10.0 mi ESE 18.4 mph 27.6 mph N/A   Mostly Cloudy
3:35 AM 44.6 °F 38.1 °F 24.8 °F 46% 30.01 in 10.0 mi ESE 13.8 mph 25.3 mph N/A   Overcast
4:15 AM 46.4 °F 39.0 °F 23.0 °F 40% 30.00 in 10.0 mi ESE 19.6 mph 25.3 mph N/A   Mostly Cloudy
4:35 AM 46.4 °F 38.5 °F 23.0 °F 40% 29.99 in 10.0 mi ESE 21.9 mph 33.4 mph N/A   Scattered Clouds
4:55 AM 46.4 °F 38.1 °F 23.0 °F 40% 29.98 in 10.0 mi ESE 24.2 mph 32.2 mph N/A   Overcast
5:15 AM 46.4 °F 38.7 °F 23.0 °F 40% 29.97 in 10.0 mi ESE 20.7 mph 28.8 mph N/A   Overcast
5:35 AM 46.4 °F 38.7 °F 23.0 °F 40% 29.97 in 10.0 mi East 20.7 mph 28.8 mph N/A   Overcast
5:55 AM 46.4 °F 39.5 °F 24.8 °F 43% 29.97 in 10.0 mi ESE 17.3 mph 27.6 mph N/A   Overcast
6:35 AM 46.4 °F 39.8 °F 24.8 °F 43% 29.98 in 10.0 mi ESE 16.1 mph 27.6 mph N/A   Overcast
6:55 AM 46.4 °F 39.2 °F 24.8 °F 43% 29.98 in 10.0 mi ESE 18.4 mph 26.5 mph N/A   Overcast
7:15 AM 46.4 °F 38.7 °F 24.8 °F 43% 29.96 in 10.0 mi ESE 20.7 mph 29.9 mph N/A   Overcast
7:35 AM 46.4 °F 39.5 °F 26.6 °F 46% 29.97 in 10.0 mi ESE 17.3 mph 26.5 mph N/A   Overcast
7:55 AM 46.4 °F 40.1 °F 26.6 °F 46% 29.95 in 10.0 mi ESE 15.0 mph 27.6 mph N/A   Overcast
8:15 AM 46.4 °F 38.1 °F 26.6 °F 46% 29.95 in 10.0 mi East 24.2 mph 27.6 mph N/A   Scattered Clouds
8:35 AM 48.2 °F - 26.6 °F 43% 29.94 in 10.0 mi ESE 21.9 mph 29.9 mph N/A   Clear
8:55 AM 48.2 °F - 24.8 °F 40% 29.94 in 10.0 mi ESE 19.6 mph 28.8 mph N/A   Clear
9:15 AM 50.0 °F - 24.8 °F 37% 29.93 in 10.0 mi East 25.3 mph 32.2 mph N/A   Clear
9:35 AM 51.8 °F - 26.6 °F 38% 29.94 in 10.0 mi ESE 25.3 mph 34.5 mph N/A   Clear
9:55 AM 51.8 °F - 24.8 °F 35% 29.93 in 10.0 mi ESE 21.9 mph 35.7 mph N/A   Clear
10:15 AM 53.6 °F - 26.6 °F 35% 29.92 in 10.0 mi ESE 25.3 mph 39.1 mph N/A   Clear
10:55 AM 55.4 °F - 26.6 °F 33% 29.90 in 10.0 mi ESE 29.9 mph 40.3 mph N/A   Clear
11:15 AM 53.6 °F - 26.6 °F 35% 29.91 in 10.0 mi ESE 21.9 mph 39.1 mph N/A   Clear
11:35 AM 55.4 °F - 26.6 °F 33% 29.92 in 10.0 mi ESE 20.7 mph 34.5 mph N/A   Clear
11:55 AM 55.4 °F - 28.4 °F 36% 29.91 in 10.0 mi ESE 27.6 mph 36.8 mph N/A   Clear
12:15 PM 55.4 °F - 28.4 °F 36% 29.90 in 10.0 mi East 29.9 mph 35.7 mph N/A   Clear
12:35 PM 55.4 °F - 26.6 °F 33% 29.89 in 10.0 mi East 23.0 mph 39.1 mph N/A   Clear
12:55 PM 55.4 °F - 28.4 °F 36% 29.87 in 10.0 mi East 24.2 mph 38.0 mph N/A   Clear
1:15 PM 55.4 °F - 26.6 °F 33% 29.86 in 10.0 mi East 27.6 mph 38.0 mph N/A   Clear
1:35 PM 55.4 °F - 28.4 °F 36% 29.85 in 10.0 mi East 24.2 mph 40.3 mph N/A   Clear
1:55 PM 55.4 °F - 26.6 °F 33% 29.85 in 10.0 mi ESE 21.9 mph 36.8 mph N/A   Scattered Clouds
2:15 PM 55.4 °F - 26.6 °F 33% 29.86 in 10.0 mi ESE 20.7 mph 31.1 mph N/A   Mostly Cloudy
2:35 PM 55.4 °F - 26.6 °F 33% 29.85 in 10.0 mi ESE 25.3 mph 33.4 mph N/A   Partly Cloudy
2:55 PM 55.4 °F - 26.6 °F 33% 29.85 in 10.0 mi ESE 23.0 mph 39.1 mph N/A   Mostly Cloudy
3:15 PM 55.4 °F - 26.6 °F 33% 29.85 in 10.0 mi ESE 26.5 mph 39.1 mph N/A   Overcast
3:55 PM 53.6 °F - 26.6 °F 35% 29.84 in 10.0 mi East 24.2 mph 36.8 mph N/A   Mostly Cloudy
4:15 PM 53.6 °F - 28.4 °F 38% 29.83 in 10.0 mi East 21.9 mph 35.7 mph N/A   Mostly Cloudy
4:35 PM 53.6 °F - 28.4 °F 38% 29.83 in 10.0 mi East 19.6 mph 27.6 mph N/A   Mostly Cloudy
5:15 PM 51.8 °F - 30.2 °F 44% 29.83 in 10.0 mi East 23.0 mph 33.4 mph N/A   Overcast
5:35 PM 51.8 °F - 30.2 °F 44% 29.82 in 10.0 mi East 24.2 mph 36.8 mph N/A   Overcast
5:55 PM 51.8 °F - 30.2 °F 44% 29.82 in 10.0 mi East 23.0 mph 33.4 mph N/A   Overcast
6:15 PM 51.8 °F - 30.2 °F 44% 29.82 in 10.0 mi East 18.4 mph 32.2 mph N/A   Overcast
6:35 PM 51.8 °F - 30.2 °F 44% 29.81 in 10.0 mi East 20.7 mph 29.9 mph N/A   Overcast
6:55 PM 51.8 °F - 28.4 °F 41% 29.80 in 10.0 mi East 24.2 mph 31.1 mph N/A   Overcast
7:15 PM 51.8 °F - 28.4 °F 41% 29.79 in 10.0 mi East 23.0 mph 38.0 mph N/A   Overcast
7:35 PM 51.8 °F - 28.4 °F 41% 29.77 in 10.0 mi East 27.6 mph 35.7 mph N/A   Overcast
7:55 PM 51.8 °F - 28.4 °F 41% 29.78 in 10.0 mi ESE 27.6 mph 35.7 mph N/A   Overcast
8:15 PM 51.8 °F - 28.4 °F 41% 29.78 in 10.0 mi East 20.7 mph 29.9 mph N/A   Overcast
8:35 PM 50.0 °F - 28.4 °F 43% 29.79 in 10.0 mi East 23.0 mph 33.4 mph N/A   Overcast
8:55 PM 50.0 °F - 26.6 °F 40% 29.80 in 10.0 mi East 18.4 mph 32.2 mph N/A   Overcast
9:15 PM 50.0 °F - 26.6 °F 40% 29.80 in 10.0 mi East 25.3 mph 33.4 mph N/A   Overcast
9:35 PM 50.0 °F - 26.6 °F 40% 29.80 in 10.0 mi ESE 19.6 mph 34.5 mph N/A   Overcast
9:55 PM 50.0 °F - 26.6 °F 40% 29.80 in 10.0 mi ESE 25.3 mph 34.5 mph N/A   Overcast
10:15 PM 50.0 °F - 26.6 °F 40% 29.78 in 10.0 mi East 23.0 mph 33.4 mph N/A   Overcast
10:35 PM 50.0 °F - 26.6 °F 40% 29.78 in 10.0 mi ESE 24.2 mph 38.0 mph N/A   Overcast
10:55 PM 50.0 °F - 26.6 °F 40% 29.75 in 10.0 mi ESE 26.5 mph 36.8 mph N/A   Mostly Cloudy
11:15 PM 50.0 °F - 26.6 °F 40% 29.75 in 10.0 mi East 25.3 mph 31.1 mph N/A   Mostly Cloudy
11:35 PM 51.8 °F - 26.6 °F 38% 29.76 in 10.0 mi ESE 19.6 mph 29.9 mph N/A   Overcast
11:55 PM 48.2 °F - 28.4 °F 46% 29.75 in 10.0 mi ESE 19.6 mph 33.4 mph N/A   Overcast